Home > Weather > Saint-Pierre > Past weeks

Flag for Saint Pierre and Miquelon Weather for the Past 2 Weeks in Saint-Pierre, Saint Pierre and Miquelon

Now
27 °F

Heavy snow. Low clouds.


Feels Like: 9 °F
Forecast: 27 / 36 °F
Wind: 44 mph from East

Location: Saint-Pierre

Current Time: Feb 9, 2016 at 5:44:23 AM

Latest Report: Feb 9, 2016 at 4:00 AM


Visibility: 0 mi

Pressure: 29.56 "Hg

Humidity: 98%

Dew point: 27 °F

Location of Saint-PierreLocation

Historic Weather in Saint-Pierre — Graph

°F

Saint-Pierre Temperature Yesterday

Maximum temperature yesterday: 25 °F (at 12:00 AM)
Minimum temperature yesterday: 22 °F (at 11:00 PM)
Average temperature yesterday: 24 °F

High & Low Weather Summary for the Past Weeks

 TemperatureHumidityPressure
High47 °F (Feb 6, 5:00 AM)100% (Jan 30, 3:00 AM)30.46 "Hg (Jan 30, 3:00 AM)
Low19 °F (Jan 26, 2:00 AM)60% (Jan 28, 2:00 PM)28.53 "Hg (Jan 30, 2:00 AM)
Average31 °F84%29.92 "Hg
* Reported Jan 25 4:00 AM — Feb 9 4:00 AM, Saint-Pierre, Weather by CustomWeather, © 2016

Note: Actual official high and low records may vary slightly from our data, if they occured in-between our weather recording intervals... More about our weather records

Advertising

Saint-Pierre Weather History for the Previous 24 Hours

 ConditionsComfort  
Time TempWeatherWind HumidityBarometerVisibility
4:00 AM
Tue, Feb 9
27 °FHeavy snow. Low clouds.44 mph98%29.56 "Hg1 mi
1:00 AM25 °FLight snow. Overcast.40 mph96%29.75 "Hg1 mi
12:00 AM24 °FLight snow. Low clouds.40 mph96%29.80 "Hg1 mi
11:00 PM
Mon, Feb 8
22 °FLight snow. Overcast.35 mph93%29.85 "Hg1 mi
10:00 PM23 °FOvercast.36 mph84%29.90 "Hg3 mi
8:00 PM25 °FOvercast.31 mph78%29.98 "Hg25 mi
6:00 PM25 °FOvercast.35 mph79%29.93 "Hg25 mi
5:00 PM25 °FOvercast.26 mph76%30.05 "Hg25 mi
4:00 PM24 °FOvercast.25 mph69%30.06 "Hg25 mi
3:00 PM24 °FOvercast.21 mph66%30.08 "Hg25 mi
2:00 PM23 °FOvercast.24 mph67%30.09 "Hg34 mi
1:00 PM24 °FOvercast.23 mph71%30.13 "Hg25 mi
12:00 PM23 °FOvercast.22 mph68%30.17 "Hg34 mi
11:00 AM23 °FOvercast.21 mph68%30.19 "Hg25 mi
10:00 AM23 °FOvercast.18 mph68%30.19 "Hg25 mi
9:00 AM23 °FPartly sunny.15 mph69%30.16 "Hg25 mi
8:00 AM23 °FCold.13 mph71%30.16 "Hg25 mi
7:00 AM24 °FPassing clouds.13 mph71%30.15 "Hg25 mi
6:00 AM24 °FPassing clouds.12 mph68%30.14 "Hg25 mi
5:00 AM24 °FOvercast.17 mph68%30.13 "Hg22 mi
Weather by CustomWeather, © 2016

See weather overviewHow to use our weather pages